ONEWEB-0129 (47275 NORAD) Tracking and Keplerian Element Data
This shows tracking and keplerian element data for the satellite.
Feedback or suggestion? Click here.
Element | Value |
Catalog | 47275 |
Name | ONEWEB-0129 |
Epoch Orbit | 513 |
Epoch Day | 21.16668981 |
Epoch Year | 2021 |
RAAN | 27.9029 |
Inclination | 87.4156 |
Eccentricity | 0.0012023 |
Argument of Perigee | 150.1078 |
Mean Anonmoly | 330.0615 |
Mean Motion | 14.97233019 |
Decay Rate | -0.01495888 |
L1 | 1 47275U 20100T 21021.16668981 -.01495888 00000-0 -14184+0 0 9991 |
L2 | 2 47275 87.4156 27.9029 0012023 150.1078 330.0615 14.97233019 5133 |
Live tracking and technical data element details for ONEWEB-0129 (NORAD 47275). ONEWEB-0129 can be tracked NOW for your location showing map with azimuth and elevation plus other details from your city location.
Track the satellite on the map from your city or location and see movement details for azimuth, elevation, latitude, longitude, range, height, and movement on the map or in text.
IsCatalogInMostPopularTable: catalog: 47275, numindb: 14
Update: records affected: 1
GetName: 47275 ONEWEB-0129
Hit Count: updated at: Sat, 23 Jan 2021 16:45:53 GMT